Weather History for Warsaw, IN

Change the Weather History Date:

Thursday, May 10, 2012

  Actual Average Record
Temperature  
Mean Temperature 50 °F -  
Max Temperature 64 °F 68 °F 88 °F (1963)
Min Temperature 37 °F 46 °F 24 °F (1966)
Degree Days  
Heating Degree Days 14    
Moisture  
Dew Point 34 °F    
Average Humidity 55    
Maximum Humidity 93    
Minimum Humidity 26    
Precipitation  
Precipitation 0.00 in - - ()
Sea Level Pressure  
Sea Level Pressure 29.98 in    
Wind  
Wind Speed 5 mph (NW)    
Max Wind Speed 13 mph    
Max Gust Speed 17 mph    
Visibility 10 miles    
Events      
Averages and records for this station are not official NWS values.
T = Trace of Precipitation, MM = Missing Value Source: NWS Daily Summary

Daily Weather History Graph

Daily Weather History Graph

Search for Another Location

Airport:

Trip Planner

Search our weather history database for the weather conditions in past years. The results will help you decide how hot, cold, wet, or windy it might be!

Date:

Astronomy

May. 10, 2012 Rise Set
Actual Time 6:29 AM EDT 8:50 PM EDT
Civil Twilight 5:58 AM EDT 9:21 PM EDT
Nautical Twilight 5:20 AM EDT 10:00 PM EDT
Astronomical Twilight 4:37 AM EDT 10:42 PM EDT
Moon 12:49 AM EDT (5/10) 10:53 AM EDT (5/10)
Length of Visible Light 15h 23m
Length of Day
14h 21m
Waning Gibbous, 73% of the Moon is Illuminated
May 10
Waning Gibbous
May 12
Last Quarter
May 20
New
May 28
First Quarter
Jun 4
Full

Hourly Weather History & Observations

Time (EDT) Temp. Windchill Dew Point Humidity Pressure Visibility Wind Dir Wind Speed Gust Speed Precip Events Conditions
12:35 AM 41.0 °F 38.0 °F 33.8 °F 76% 29.93 in 10.0 mi NW 4.6 mph - N/A   Clear
12:55 AM 39.2 °F 35.9 °F 33.8 °F 81% 29.93 in 10.0 mi WNW 4.6 mph - N/A   Clear
1:15 AM 41.0 °F 38.0 °F 33.8 °F 76% 29.93 in 10.0 mi NW 4.6 mph - N/A   Clear
1:35 AM 41.0 °F 39.0 °F 35.6 °F 81% 29.93 in 10.0 mi NW 3.5 mph - N/A   Clear
1:55 AM 41.0 °F - 35.6 °F 81% 29.93 in 10.0 mi Calm Calm - N/A   Clear
2:15 AM 42.8 °F 40.1 °F 35.6 °F 76% 29.93 in 10.0 mi NW 4.6 mph - N/A   Clear
2:35 AM 42.8 °F 41.1 °F 35.6 °F 76% 29.93 in 10.0 mi NW 3.5 mph - N/A   Clear
2:55 AM 39.2 °F - 35.6 °F 87% 29.93 in 10.0 mi Calm Calm - N/A   Clear
3:15 AM 37.4 °F 34.9 °F 35.6 °F 93% 29.93 in 10.0 mi WNW 3.5 mph - N/A   Clear
3:35 AM 37.4 °F 33.8 °F 35.6 °F 93% 29.93 in 10.0 mi WNW 4.6 mph - N/A   Clear
3:55 AM 39.2 °F 35.0 °F 35.6 °F 87% 29.93 in 10.0 mi WNW 5.8 mph - N/A   Clear
4:15 AM 37.4 °F 34.9 °F 35.6 °F 93% 29.93 in 10.0 mi WNW 3.5 mph - N/A   Clear
4:35 AM 37.4 °F - 35.6 °F 93% 29.93 in 10.0 mi Calm Calm - N/A   Clear
4:55 AM 41.0 °F - 37.4 °F 87% 29.94 in 10.0 mi Calm Calm - N/A   Clear
5:15 AM 39.2 °F - 37.4 °F 93% 29.94 in 10.0 mi Calm Calm - N/A   Clear
5:35 AM 39.2 °F 37.0 °F 35.6 °F 87% 29.94 in 10.0 mi West 3.5 mph - N/A   Clear
5:55 AM 39.2 °F 37.0 °F 37.4 °F 93% 29.94 in 10.0 mi West 3.5 mph - N/A   Clear
6:15 AM 39.2 °F 37.0 °F 37.4 °F 93% 29.94 in 10.0 mi West 3.5 mph - N/A   Clear
7:15 AM 37.4 °F 33.8 °F 35.6 °F 93% 29.95 in 10.0 mi West 4.6 mph - N/A   Clear
7:35 AM 39.2 °F 35.9 °F 37.4 °F 93% 29.96 in 10.0 mi West 4.6 mph - N/A   Clear
7:55 AM 42.8 °F 41.1 °F 41.0 °F 93% 29.97 in 10.0 mi West 3.5 mph - N/A   Clear
8:15 AM 46.4 °F 42.9 °F 37.4 °F 71% 29.98 in 10.0 mi NW 6.9 mph - N/A   Clear
8:35 AM 46.4 °F 43.5 °F 37.4 °F 71% 29.98 in 10.0 mi NW 5.8 mph - N/A   Clear
8:55 AM 48.2 °F - 37.4 °F 66% 29.99 in 10.0 mi NW 5.8 mph - N/A   Clear
9:15 AM 50.0 °F - 37.4 °F 62% 29.99 in 10.0 mi NW 6.9 mph - N/A   Clear
9:35 AM 51.8 °F - 37.4 °F 58% 29.99 in 10.0 mi NNW 6.9 mph - N/A   Clear
9:55 AM 53.6 °F - 35.6 °F 51% 30.00 in 10.0 mi North 10.4 mph - N/A   Clear
10:35 AM 55.4 °F - 35.6 °F 47% 30.00 in 10.0 mi NNW 8.1 mph - N/A   Clear
10:55 AM 55.4 °F - 33.8 °F 44% 30.00 in 10.0 mi North 8.1 mph - N/A   Clear
11:15 AM 57.2 °F - 33.8 °F 41% 30.00 in 10.0 mi North 10.4 mph - N/A   Clear
11:35 AM 57.2 °F - 33.8 °F 41% 30.00 in 10.0 mi North 6.9 mph - N/A   Clear
11:55 AM 59.0 °F - 33.8 °F 39% 30.00 in 10.0 mi NNW 10.4 mph - N/A   Clear
12:15 PM 59.0 °F - 33.8 °F 39% 30.00 in 10.0 mi NNW 11.5 mph 17.3 mph N/A   Clear
12:35 PM 59.0 °F - 33.8 °F 39% 30.00 in 10.0 mi NNW 9.2 mph - N/A   Clear
12:55 PM 60.8 °F - 33.8 °F 36% 30.00 in 10.0 mi NNW 12.7 mph 17.3 mph N/A   Clear
1:15 PM 60.8 °F - 32.0 °F 34% 30.00 in 10.0 mi NW 4.6 mph - N/A   Clear
1:35 PM 60.8 °F - 32.0 °F 34% 29.99 in 10.0 mi North 9.2 mph 17.3 mph N/A   Clear
1:55 PM 62.6 °F - 32.0 °F 32% 29.99 in 10.0 mi NNW 8.1 mph - N/A   Clear
2:15 PM 62.6 °F - 32.0 °F 32% 29.98 in 10.0 mi North 6.9 mph - N/A   Clear
2:35 PM 62.6 °F - 32.0 °F 32% 29.98 in 10.0 mi North 6.9 mph - N/A   Clear
2:55 PM 62.6 °F - 32.0 °F 32% 29.98 in 10.0 mi NW 10.4 mph - N/A   Clear
3:15 PM 64.4 °F - 30.2 °F 28% 29.98 in 10.0 mi NW 8.1 mph - N/A   Clear
3:35 PM 64.4 °F - 30.2 °F 28% 29.98 in 10.0 mi NW 8.1 mph 16.1 mph N/A   Clear
3:55 PM 64.4 °F - 28.4 °F 26% 29.98 in 10.0 mi NNW 5.8 mph - N/A   Clear
4:15 PM 64.4 °F - 30.2 °F 28% 29.98 in 10.0 mi WNW 8.1 mph - N/A   Clear
4:35 PM 64.4 °F - 28.4 °F 26% 29.98 in 10.0 mi NNE 5.8 mph 9.2 mph N/A   Clear
4:55 PM 64.4 °F - 32.0 °F 30% 29.98 in 10.0 mi NNW 9.2 mph - N/A   Clear
5:35 PM 64.4 °F - 30.2 °F 28% 29.98 in 10.0 mi NNW 11.5 mph - N/A   Clear
5:55 PM 64.4 °F - 30.2 °F 28% 29.98 in 10.0 mi NNW 4.6 mph - N/A   Clear
6:15 PM 64.4 °F - 30.2 °F 28% 29.98 in 10.0 mi North 6.9 mph - N/A   Clear
6:35 PM 64.4 °F - 30.2 °F 28% 29.99 in 10.0 mi NW 8.1 mph - N/A   Clear
6:55 PM 64.4 °F - 32.0 °F 30% 29.99 in 10.0 mi NW 10.4 mph - N/A   Clear
7:15 PM 62.6 °F - 32.0 °F 32% 29.99 in 10.0 mi NW 9.2 mph - N/A   Clear
7:35 PM 62.6 °F - 32.0 °F 32% 29.99 in 10.0 mi NNW 4.6 mph - N/A   Clear
7:55 PM 60.8 °F - 32.0 °F 34% 30.00 in 10.0 mi NNW 6.9 mph - N/A   Clear
8:15 PM 60.8 °F - 32.0 °F 34% 30.00 in 10.0 mi NNW 5.8 mph - N/A   Clear
8:35 PM 59.0 °F - 32.0 °F 36% 30.00 in 10.0 mi NNW 4.6 mph - N/A   Clear
8:55 PM 57.2 °F - 32.0 °F 38% 30.00 in 10.0 mi NW 4.6 mph - N/A   Clear
9:15 PM 55.4 °F - 33.8 °F 44% 30.01 in 10.0 mi NW 3.5 mph - N/A   Clear
9:35 PM 55.4 °F - 33.8 °F 44% 30.01 in 10.0 mi NNW 4.6 mph - N/A   Clear
9:55 PM 53.6 °F - 33.8 °F 47% 30.02 in 10.0 mi NNW 3.5 mph - N/A   Clear
10:15 PM 53.6 °F - 33.8 °F 47% 30.03 in 10.0 mi NNW 3.5 mph - N/A   Clear
10:35 PM 51.8 °F - 33.8 °F 50% 30.04 in 10.0 mi NNW 4.6 mph - N/A   Clear
11:15 PM 50.0 °F - 33.8 °F 54% 30.05 in 10.0 mi Calm Calm - N/A   Clear
11:35 PM 48.2 °F - 35.6 °F 62% 30.05 in 10.0 mi Calm Calm - N/A   Clear
11:55 PM 46.4 °F - 35.6 °F 66% 30.06 in 10.0 mi Calm Calm - N/A   Clear